Location: Poughquag
(41.6090°N, 73.6820°W)
Time: 03:26:11
(UTC-04:00)

Vanguard 2 - Pass Details

Date: 02 June 2020
Orbit: 552 x 2938 km, 32.9° (Epoch: 06 July)

Event Time Altitude Azimuth Distance (km) Brightness Sun altitude
Rises 18:24:43 0° 231° (SW) 6,611 12.8 19.7°
Reaches altitude 10° 18:29:49 10° 225° (SW) 5,380 12.3 18.8°
Maximum altitude 18:43:13 40° 163° (SSE) 2,728 10.2 16.4°
Drops below altitude 10° 18:52:06 10° 99° (E) 3,597 10.4 14.8°
Sets 18:54:47 0° 91° (E) 4,288 10.7 14.3°
